Simultaneous Nadir Overpasses (SNOs) Predictions

Prediction of SNOs between AQUA and NOAA-19 Satellite Orbit:

Table of predicted SNOs for the next 14.0 days since TLE Epoch: 3/8/2014
Index Date (AQUA) Time (AQUA) Lat,Lon (AQUA) SZA (AQUA ) Date (NOAA-19) Time (NOAA-19) Lat,Lon (NOAA-19) SZA (NOAA-19 ) Distance(km) Time Diff (sec)
1 03/09/2014 22:37:51 -74.13, 14.20 101.53 03/09/2014 22:36:58 -74.13, 14.17 101.51 1.02 53
2 03/09/2014 23:26:46 72.42,-174.63 76.63 03/09/2014 23:27:23 72.42,-174.63 76.63 0.29 37
3 03/12/2014 03:22:25 -74.78, -58.46 101.68 03/12/2014 03:21:11 -74.76, -58.52 101.68 2.55 74
4 03/12/2014 04:11:20 73.09, 112.97 76.48 03/12/2014 04:11:36 73.10, 112.93 76.49 1.84 16
5 03/14/2014 08:55:48 73.48, 41.09 76.03 03/14/2014 08:55:43 73.49, 41.06 76.04 1.09 5
6 03/16/2014 13:40:11 73.64, -30.33 75.33 03/16/2014 13:39:45 73.63, -30.26 75.32 2.58 26
7 03/16/2014 14:29:04 -71.92, 140.66 106.51 03/16/2014 14:30:16 -71.92, 140.67 106.52 0.43 72
8 03/18/2014 18:24:44 74.35,-103.02 75.22 03/18/2014 18:23:59 74.36,-103.09 75.25 2.50 45
9 03/18/2014 19:13:37 -72.65, 68.26 106.62 03/18/2014 19:14:30 -72.66, 68.20 106.62 2.01 53
10 03/20/2014 23:09:05 74.47,-174.38 74.48 03/20/2014 23:08:00 74.47,-174.34 74.49 1.26 65




NCC Satellite Simultaneous Nadir Overpasses (SNOs) Prediction Service
